• In Russia
  • List of Countries
  • For 7 days
  • Water Temperature
  • Satellite Maps
  • Weather Map
  • Weather Widgets
  • user-avatar
    Login

    Hourly Weather Marsa Alam

    Today, 20 February, Tuesday

    Time Temperature Precipitation Wind Pressure Humidity
    00:00 +18°C° 0 mm 2 mps 714 mmHg 59%
    01:00 +17°C° 0 mm 2 mps 714 mmHg 59%
    02:00 +17°C° 0 mm 2 mps 713 mmHg 58%
    03:00 +17°C° 0 mm 2 mps 713 mmHg 57%
    04:00 +16°C° 0 mm 2 mps 713 mmHg 55%
    05:00 +16°C° 0 mm 2 mps 713 mmHg 54%
    06:00 +17°C° 0 mm 2 mps 713 mmHg 50%
    07:00 +19°C° 0 mm 1 mps 714 mmHg 46%
    08:00 +20°C° 0 mm 1 mps 714 mmHg 40%
    09:00 +20°C° 0 mm 2 mps 714 mmHg 36%
    10:00 +21°C° 0 mm 2 mps 714 mmHg 31%
    11:00 +24°C° 0 mm 3 mps 714 mmHg 26%
    12:00 +24°C° 0 mm 3 mps 714 mmHg 24%
    13:00 +25°C° 0 mm 3 mps 714 mmHg 23%
    14:00 +26°C° 0 mm 3 mps 713 mmHg 21%
    15:00 +25°C° 0 mm 3 mps 713 mmHg 23%
    16:00 +25°C° 0 mm 3 mps 713 mmHg 25%
    17:00 +24°C° 0 mm 3 mps 712 mmHg 27%
    18:00 +23°C° 0 mm 2 mps 712 mmHg 31%
    19:00 +21°C° 0 mm 2 mps 712 mmHg 35%
    20:00 +21°C° 0 mm 1 mps 713 mmHg 38%
    21:00 +21°C° 0 mm 1 mps 713 mmHg 40%
    22:00 +20°C° 0 mm 1 mps 713 mmHg 43%
    23:00 +17°C° 0 mm 0 mps 713 mmHg 45%

    Tomorrow, 21 February, Wednesday

    Time Temperature Precipitation Wind Pressure Humidity
    00:00 +17°C° 0 mm 0 mps 713 mmHg 45%
    01:00 +16°C° 0 mm 0 mps 712 mmHg 45%
    02:00 +16°C° 0 mm 0 mps 712 mmHg 46%
    03:00 +15°C° 0 mm 0 mps 712 mmHg 45%
    04:00 +15°C° 0 mm 0 mps 712 mmHg 44%
    05:00 +15°C° 0 mm 0 mps 712 mmHg 44%
    06:00 +16°C° 0 mm 0 mps 713 mmHg 39%
    07:00 +18°C° 0 mm 0 mps 713 mmHg 34%
    08:00 +22°C° 0 mm 1 mps 714 mmHg 29%
    09:00 +24°C° 0 mm 1 mps 714 mmHg 26%
    10:00 +25°C° 0 mm 2 mps 714 mmHg 23%
    11:00 +27°C° 0 mm 3 mps 714 mmHg 19%
    12:00 +27°C° 0 mm 3 mps 713 mmHg 19%
    13:00 +28°C° 0 mm 4 mps 713 mmHg 19%
    14:00 +28°C° 0 mm 4 mps 712 mmHg 19%
    15:00 +27°C° 0 mm 4 mps 712 mmHg 21%
    16:00 +27°C° 0 mm 4 mps 712 mmHg 24%
    17:00 +26°C° 0 mm 4 mps 712 mmHg 27%
    18:00 +25°C° 0 mm 4 mps 712 mmHg 32%
    19:00 +24°C° 0 mm 3 mps 712 mmHg 37%
    20:00 +22°C° 0 mm 3 mps 712 mmHg 42%
    21:00 +21°C° 0 mm 2 mps 712 mmHg 43%
    22:00 +21°C° 0 mm 2 mps 712 mmHg 45%
    23:00 +22°C° 0 mm 1 mps 712 mmHg 46%

    Day after tomorrow, 22 February, Thursday

    Time Temperature Precipitation Wind Pressure Humidity
    00:00 +21°C° 0 mm 1 mps 712 mmHg 47%
    01:00 +21°C° 0 mm 1 mps 712 mmHg 48%
    02:00 +20°C° 0 mm 1 mps 712 mmHg 50%
    03:00 +20°C° 0 mm 1 mps 712 mmHg 51%
    04:00 +20°C° 0 mm 1 mps 711 mmHg 53%
    05:00 +18°C° 0 mm 2 mps 711 mmHg 55%
    06:00 +19°C° 0 mm 2 mps 712 mmHg 54%
    07:00 +20°C° 0 mm 2 mps 712 mmHg 53%
    08:00 +21°C° 0 mm 2 mps 713 mmHg 52%
    09:00 +23°C° 0 mm 2 mps 713 mmHg 46%
    10:00 +25°C° 0 mm 2 mps 713 mmHg 40%
    11:00 +27°C° 0 mm 2 mps 713 mmHg 34%
    12:00 +27°C° 0 mm 2 mps 713 mmHg 32%
    13:00 +28°C° 0 mm 2 mps 712 mmHg 29%
    14:00 +29°C° 0 mm 3 mps 712 mmHg 27%
    15:00 +28°C° 0 mm 3 mps 711 mmHg 30%
    16:00 +28°C° 0 mm 3 mps 711 mmHg 33%
    17:00 +27°C° 0 mm 3 mps 711 mmHg 36%
    18:00 +26°C° 0 mm 3 mps 712 mmHg 42%
    19:00 +25°C° 0 mm 2 mps 712 mmHg 48%
    20:00 +23°C° 0 mm 2 mps 712 mmHg 54%
    21:00 +23°C° 0 mm 2 mps 712 mmHg 55%
    22:00 +21°C° 0 mm 2 mps 712 mmHg 55%
    23:00 +21°C° 0 mm 2 mps 712 mmHg 56%

    23 February, Friday

    Time Temperature Precipitation Wind Pressure Humidity
    00:00 +21°C° 0 mm 2 mps 712 mmHg 54%
    01:00 +21°C° 0 mm 2 mps 712 mmHg 52%
    02:00 +21°C° 0 mm 2 mps 712 mmHg 51%
    03:00 +21°C° 0 mm 3 mps 712 mmHg 49%
    04:00 +21°C° 0 mm 3 mps 712 mmHg 48%
    05:00 +20°C° 0 mm 3 mps 712 mmHg 46%
    06:00 +21°C° 0 mm 3 mps 712 mmHg 42%
    07:00 +22°C° 0 mm 3 mps 712 mmHg 37%
    08:00 +24°C° 0 mm 2 mps 712 mmHg 33%
    09:00 +26°C° 0 mm 3 mps 712 mmHg 29%
    10:00 +27°C° 0 mm 3 mps 712 mmHg 25%
    11:00 +29°C° 0 mm 3 mps 712 mmHg 21%
    12:00 +30°C° 0 mm 3 mps 712 mmHg 20%
    13:00 +30°C° 0 mm 3 mps 711 mmHg 20%
    14:00 +31°C° 0 mm 3 mps 711 mmHg 19%
    15:00 +30°C° 0 mm 3 mps 710 mmHg 21%
    16:00 +30°C° 0 mm 3 mps 710 mmHg 23%
    17:00 +30°C° 0 mm 3 mps 710 mmHg 25%
    18:00 +28°C° 0 mm 2 mps 710 mmHg 31%
    19:00 +26°C° 0 mm 2 mps 710 mmHg 37%
    20:00 +25°C° 0 mm 1 mps 711 mmHg 42%
    21:00 +24°C° 0 mm 1 mps 710 mmHg 46%
    22:00 +24°C° 0 mm 1 mps 710 mmHg 49%
    23:00 +23°C° 0 mm 2 mps 710 mmHg 52%

    24 February, Saturday

    Time Temperature Precipitation Wind Pressure Humidity
    00:00 +23°C° 0 mm 2 mps 709 mmHg 55%
    01:00 +21°C° 0 mm 2 mps 709 mmHg 57%
    02:00 +21°C° 0 mm 2 mps 709 mmHg 59%
    03:00 +20°C° 0 mm 2 mps 709 mmHg 63%
    04:00 +20°C° 0 mm 3 mps 709 mmHg 67%
    05:00 +19°C° 0 mm 3 mps 709 mmHg 71%
    06:00 +20°C° 0 mm 3 mps 709 mmHg 69%
    07:00 +21°C° 0 mm 4 mps 710 mmHg 67%
    08:00 +21°C° 0 mm 4 mps 710 mmHg 65%
    09:00 +23°C° 0 mm 4 mps 710 mmHg 59%
    10:00 +26°C° 0 mm 4 mps 710 mmHg 52%
    11:00 +27°C° 0 mm 4 mps 710 mmHg 46%
    12:00 +28°C° 0 mm 5 mps 710 mmHg 42%
    13:00 +30°C° 0 mm 6 mps 709 mmHg 38%
    14:00 +32°C° 0 mm 6 mps 709 mmHg 34%
    15:00 +29°C° 0 mm 6 mps 709 mmHg 42%
    16:00 +27°C° 0 mm 7 mps 709 mmHg 50%
    17:00 +24°C° 0 mm 7 mps 709 mmHg 58%
    18:00 +23°C° 0 mm 6 mps 709 mmHg 60%
    19:00 +22°C° 0 mm 5 mps 710 mmHg 62%
    20:00 +21°C° 0 mm 4 mps 711 mmHg 64%
    21:00 +21°C° 0 mm 3 mps 711 mmHg 64%
    22:00 +20°C° 0 mm 3 mps 711 mmHg 63%
    23:00 +20°C° 0 mm 2 mps 711 mmHg 62%

    25 February, Sunday

    Time Temperature Precipitation Wind Pressure Humidity
    00:00 +20°C° 0 mm 2 mps 711 mmHg 60%
    01:00 +19°C° 0 mm 2 mps 711 mmHg 57%
    02:00 +19°C° 0 mm 2 mps 711 mmHg 54%
    03:00 +19°C° 0 mm 2 mps 711 mmHg 54%
    04:00 +18°C° 0 mm 2 mps 711 mmHg 54%
    05:00 +18°C° 0 mm 2 mps 712 mmHg 53%
    06:00 +19°C° 0 mm 2 mps 712 mmHg 49%
    07:00 +20°C° 0 mm 3 mps 712 mmHg 45%
    08:00 +22°C° 0 mm 3 mps 713 mmHg 41%
    09:00 +24°C° 0 mm 3 mps 713 mmHg 37%
    10:00 +25°C° 0 mm 3 mps 713 mmHg 34%
    11:00 +26°C° 0 mm 3 mps 713 mmHg 30%
    12:00 +27°C° 0 mm 3 mps 713 mmHg 28%
    13:00 +28°C° 0 mm 4 mps 712 mmHg 25%
    14:00 +29°C° 0 mm 4 mps 712 mmHg 23%
    15:00 +28°C° 0 mm 4 mps 712 mmHg 24%
    16:00 +28°C° 0 mm 4 mps 712 mmHg 25%
    17:00 +27°C° 0 mm 4 mps 712 mmHg 26%
    18:00 +26°C° 0 mm 3 mps 712 mmHg 30%
    19:00 +25°C° 0 mm 2 mps 712 mmHg 34%
    20:00 +23°C° 0 mm 2 mps 712 mmHg 38%
    21:00 +23°C° 0 mm 1 mps 712 mmHg 39%
    22:00 +22°C° 0 mm 1 mps 712 mmHg 39%
    23:00 +22°C° 0 mm 1 mps 712 mmHg 40%
    Show more